Date String (YYYY-MM-DD hh:mm:ss) UTC,Instrument flags,Ambient pressure (hPa),Sample flow (lpm),Bypass flow (lpm),Sample temperature (°C),Ambient temperature (°C),ASC tube jacket temperature (°C),LED temperature (°C),Box temperature (°C),Sample RH (%),Span deviation,Mass concentration (μg/m³),Mass concentration (μg/m³),Mass concentration (μg/m³)
DateTimeUTC,F1_M11,P_M11,Q1_M11,Q2_M11,T1_M11,T2_M11,T3_M11,T4_M11,T5_M11,U1_M11,ZSPAN_M11,X0_M11,X2_M11,X1_M11
2022-11-22 23:00:00,,0826.7,4.99,0.00,27.3,26.1,00.0,36.1,29.1,07.5,0000.0,0012.25,0003.51,0002.71
2022-11-22 23:01:00,,0826.7,5.00,0.00,27.3,26.1,00.0,36.1,29.1,07.5,0000.0,0013.44,0003.49,0002.71
2022-11-22 23:02:00,,0826.7,5.01,0.00,27.3,26.2,00.0,36.1,29.1,07.5,0000.0,0013.85,0003.55,0002.73
2022-11-22 23:03:00,,0826.7,4.99,0.00,27.3,26.2,00.0,36.1,29.1,07.5,0000.0,0013.67,0003.57,0002.75
2022-11-22 23:04:00,,0826.7,4.99,0.00,27.3,26.2,00.0,36.1,29.1,07.6,0000.0,0013.56,0003.56,0002.76
2022-11-22 23:05:00,,0826.7,5.01,0.00,27.3,26.2,00.0,36.1,29.1,07.6,0000.0,0014.40,0003.55,0002.76
2022-11-22 23:06:00,,0826.7,5.00,0.00,27.3,26.2,00.0,36.1,29.2,07.6,0000.0,0014.26,0003.53,0002.76
2022-11-22 23:07:00,,0826.7,5.01,0.00,27.3,26.1,00.0,36.2,29.1,07.7,0000.0,0014.60,0003.56,0002.77
2022-11-22 23:08:00,,0826.7,5.00,0.00,27.3,26.1,00.0,36.2,29.1,07.7,0000.0,0014.62,0003.58,0002.76
2022-11-22 23:09:00,,0826.7,5.00,0.00,27.3,26.1,00.0,36.2,29.2,07.7,0000.0,0013.92,0003.58,0002.77
2022-11-22 23:10:00,,0826.6,4.99,0.00,27.3,26.1,00.0,36.2,29.2,07.7,0000.0,0013.70,0003.56,0002.78
2022-11-22 23:11:00,,0826.7,4.99,0.00,27.3,26.1,00.0,36.2,29.2,07.7,0000.0,0013.29,0003.52,0002.79
2022-11-22 23:12:00,,0826.7,5.01,0.00,27.3,26.1,00.0,36.2,29.1,07.7,0000.0,0011.99,0003.51,0002.79
2022-11-22 23:13:00,,0826.7,5.01,0.00,27.3,26.1,00.0,36.2,29.2,07.6,0000.0,0011.43,0003.47,0002.78
2022-11-22 23:14:00,,0826.7,5.00,0.00,27.3,26.1,00.0,36.2,29.1,07.6,0000.0,0011.31,0003.44,0002.75
2022-11-22 23:15:00,,0826.6,4.99,0.00,27.3,26.0,00.0,36.2,29.1,07.6,0000.0,0011.40,0003.45,0002.74
2022-11-22 23:16:00,,0826.6,4.99,0.00,27.3,26.0,00.0,36.2,29.1,07.6,0000.0,0010.58,0003.44,0002.73
2022-11-22 23:17:00,,0826.6,4.99,0.00,27.3,26.0,00.0,36.2,29.1,07.6,0000.0,0009.92,0003.41,0002.71
2022-11-22 23:18:00,,0826.6,5.01,0.00,27.3,26.0,00.0,36.2,29.1,07.5,0000.0,0009.78,0003.37,0002.68
2022-11-22 23:19:00,,0826.6,5.00,0.00,27.3,26.0,00.0,36.2,29.1,07.5,0000.0,0009.34,0003.37,0002.68
2022-11-22 23:20:00,,0826.5,5.00,0.00,27.3,26.0,00.0,36.2,29.1,07.5,0000.0,0009.70,0003.36,0002.68
2022-11-22 23:21:00,,0826.5,4.99,0.00,27.3,26.0,00.0,36.2,29.1,07.5,0000.0,0009.65,0003.38,0002.66
2022-11-22 23:22:00,,0826.5,5.00,0.00,27.3,26.0,00.0,36.2,29.0,07.4,0000.0,0009.40,0003.38,0002.65
2022-11-22 23:23:00,,0826.6,5.00,0.00,27.3,26.0,00.0,36.2,29.0,07.4,0000.0,0009.38,0003.35,0002.64
2022-11-22 23:24:00,,0826.5,5.00,0.00,27.3,25.9,00.0,36.2,29.1,07.4,0000.0,0009.62,0003.37,0002.64
2022-11-22 23:25:00,,0826.5,5.00,0.00,27.3,25.9,00.0,36.2,29.1,07.5,0000.0,0009.43,0003.41,0002.64
2022-11-22 23:26:00,,0826.6,5.00,0.00,27.3,25.9,00.0,36.2,29.0,07.4,0000.0,0009.45,0003.41,0002.64
2022-11-22 23:27:00,,0826.5,5.00,0.00,27.3,25.9,00.0,36.2,29.1,07.4,0000.0,0009.01,0003.40,0002.66
2022-11-22 23:28:00,,0826.5,5.00,0.00,27.3,25.8,00.0,36.2,29.0,07.4,0000.0,0009.64,0003.41,0002.68
2022-11-22 23:29:00,,0826.5,5.00,0.00,27.3,25.8,00.0,36.2,29.0,07.5,0000.0,0009.69,0003.43,0002.69
2022-11-22 23:30:00,,0826.5,5.00,0.00,27.3,25.8,00.0,36.2,29.0,07.4,0000.0,0009.30,0003.44,0002.73
2022-11-22 23:31:00,,0826.5,5.00,0.00,27.3,25.8,00.0,36.2,29.1,07.4,0000.0,0009.05,0003.48,0002.76
2022-11-22 23:32:00,,0826.6,4.99,0.00,27.2,25.8,00.0,36.2,29.0,07.4,0000.0,0008.95,0003.50,0002.79
2022-11-22 23:33:00,,0826.5,5.01,0.00,27.2,25.7,00.0,36.2,29.0,07.3,0000.0,0010.05,0003.55,0002.84
2022-11-22 23:34:00,,0826.5,5.00,0.00,27.2,25.7,00.0,36.2,29.0,07.3,0000.0,0010.07,0003.56,0002.88
2022-11-22 23:35:00,,0826.5,5.00,0.00,27.2,25.7,00.0,36.2,29.0,07.3,0000.0,0009.76,0003.57,0002.90
2022-11-22 23:36:00,,0826.5,5.00,0.00,27.2,25.7,00.0,36.2,29.0,07.4,0000.0,0009.69,0003.57,0002.93
2022-11-22 23:37:00,,0826.6,4.99,0.00,27.2,25.7,00.0,36.2,29.0,07.4,0000.0,0009.64,0003.60,0003.00
2022-11-22 23:38:00,,0826.6,4.99,0.00,27.2,25.7,00.0,36.2,29.0,07.5,0000.0,0010.22,0003.68,0003.09
2022-11-22 23:39:00,,0826.5,5.00,0.00,27.2,25.7,00.0,36.1,28.9,07.5,0000.0,0009.96,0003.71,0003.14
2022-11-22 23:40:00,,0826.5,5.02,0.00,27.2,25.6,00.0,36.1,29.0,07.4,0000.0,0010.55,0003.73,0003.16
2022-11-22 23:41:00,,0826.5,5.00,0.00,27.1,25.6,00.0,36.1,29.0,07.3,0000.0,0011.07,0003.77,0003.18
2022-11-22 23:42:00,,0826.5,4.99,0.00,27.1,25.6,00.0,36.1,29.0,07.3,0000.0,0011.08,0003.77,0003.18
2022-11-22 23:43:00,,0826.5,4.99,0.00,27.1,25.6,00.0,36.1,28.8,07.3,0000.0,0011.48,0003.76,0003.18
2022-11-22 23:44:00,,0826.5,5.00,0.00,27.1,25.6,00.0,36.1,28.8,07.3,0000.0,0010.55,0003.74,0003.18
2022-11-22 23:45:00,,0826.6,5.00,0.00,27.1,25.5,00.0,36.1,28.9,07.5,0000.0,0010.29,0003.79,0003.18
2022-11-22 23:46:00,,0826.5,5.00,0.00,27.1,25.6,00.0,36.1,28.9,07.5,0000.0,0010.32,0003.83,0003.21
2022-11-22 23:47:00,,0826.5,5.01,0.00,27.1,25.5,00.0,36.0,28.8,07.4,0000.0,0010.36,0003.80,0003.22
2022-11-22 23:48:00,,0826.6,5.00,0.00,27.1,25.5,00.0,36.0,28.7,07.3,0000.0,0010.60,0003.76,0003.20
2022-11-22 23:49:00,,0826.6,5.00,0.00,27.1,25.5,00.0,36.0,28.8,07.3,0000.0,0009.92,0003.68,0003.16
2022-11-22 23:50:00,,0826.6,5.00,0.00,27.0,25.5,00.0,36.0,28.8,07.4,0000.0,0009.70,0003.71,0003.16
2022-11-22 23:51:00,,0826.6,4.99,0.00,27.0,25.5,00.0,36.0,28.7,07.3,0000.0,0009.00,0003.72,0003.16
2022-11-22 23:52:00,,0826.6,5.00,0.00,27.0,25.5,00.0,36.0,28.7,07.3,0000.0,0008.70,0003.68,0003.14
2022-11-22 23:53:00,,0826.7,5.00,0.00,27.0,25.5,00.0,36.0,28.8,07.2,0000.0,0008.86,0003.65,0003.13
2022-11-22 23:54:00,,0826.7,4.99,0.00,27.0,25.5,00.0,36.0,28.8,07.4,0000.0,0008.65,0003.69,0003.15
2022-11-22 23:55:00,,0826.7,4.99,0.00,27.0,25.4,00.0,36.0,28.7,07.7,0000.0,0009.12,0003.76,0003.18
2022-11-22 23:56:00,,0826.7,4.99,0.00,27.0,25.4,00.0,36.0,28.6,07.5,0000.0,0009.57,0003.79,0003.20
2022-11-22 23:57:00,,0826.7,5.00,0.00,26.9,25.4,00.0,35.9,28.6,07.4,0000.0,0009.78,0003.81,0003.21
2022-11-22 23:58:00,,0826.7,5.00,0.00,26.9,25.3,00.0,35.9,28.6,08.2,0000.0,0009.88,0003.90,0003.24
2022-11-22 23:59:00,,0826.7,5.01,0.00,26.9,25.3,00.0,35.9,28.7,07.4,0000.0,0009.57,0003.95,0003.27
